Location: Kalisz
(51.7636°N, 18.0893°E)
Time: 12:38:55
(UTC+01:00)

ISS - Pass Details

Date: 24 January 2019
Orbit: 403 x 411 km, 51.6° (Epoch: 21 February)

Event Time Altitude Azimuth Distance (km) Brightness Sun altitude
Rises 17:44:17 0° 200° (SSW) 2,324 0.5 -12.6°
Reaches altitude 10° 17:47:05 10° 174° (S) 1,471 -0.9 -13.0°
Maximum altitude 17:48:54 14° 140° (SE) 1,253 -1.6 -13.3°
Enters shadow 17:49:33 13° 127° (SE) 1,285 -1.7 -13.4°
